Location: La Tine
(46.4708°N, 7.0525°E)
Time: 16:52:17
(UTC+00:00)

Cosmos 2195 Rocket - Pass Details

Date: 18 September 2020
Orbit: 948 x 994 km, 82.9° (Epoch: 28 October)

Event Time Altitude Azimuth Distance (km) Brightness Sun altitude
Rises 19:52:19 0° 351° (N) 3,702 8.1 -23.1°
Reaches altitude 10° 19:54:51 10° 353° (N) 2,744 7.3 -23.5°
Maximum altitude 20:01:10 83° 81° (E) 985 4.4 -24.4°
Enters shadow 20:03:08 47° 164° (SSE) 1,268 4.7 -24.7°
